CW8078 Weather Reports


Display with metric or nautical units.
time (UTC)temp
F
wind
direction
speed
MPH
gust
MPH
rain 1hr
in
rain 24hr
in
rain mn
in
humidity
%
barometer
mb
20220528050814 54 16 0.0 0.0 0.00 0.02 0.00 92 1012.5
20220528050305 54 16 0.0 0.0 0.00 0.02 0.00 92 1012.5
20220528043804 55 288 0.0 0.0 0.00 0.02 0.02 92 1012.3
20220528043304 55 288 0.0 0.0 0.00 0.02 0.02 92 1012.3
20220528040804 56 288 0.0 0.0 0.00 0.03 0.02 92 1012.3
20220528040305 56 288 0.0 0.0 0.00 0.04 0.02 92 1012.2
20220528033804 57 288 0.0 0.0 0.00 0.07 0.02 91 1012.2
20220528033304 57 288 0.0 0.0 0.00 0.09 0.02 90 1012.2
20220528030803 58 288 0.0 0.0 0.00 0.09 0.02 89 1012.2
20220528030304 58 288 0.0 0.0 0.00 0.09 0.02 89 1012.1
20220528023803 59 288 0.0 0.0 0.00 0.09 0.02 87 1011.8
20220528023304 59 288 0.0 0.0 0.00 0.09 0.02 88 1011.8
20220528020804 61 288 0.0 0.0 0.00 0.09 0.02 86 1011.6
20220528020305 61 288 0.0 0.0 0.00 0.09 0.02 86 1011.7
20220528013804 63 288 0.0 0.0 0.00 0.09 0.02 82 1011.4
20220528013304 63 288 0.0 0.0 0.00 0.09 0.02 81 1011.4
20220528010805 65 288 0.0 0.0 0.00 0.09 0.02 77 1011.3
20220528010305 65 288 0.0 0.0 0.00 0.10 0.02 77 1011.3
20220528003804 66 298 0.0 0.0 0.00 0.10 0.02 74 1011.3
20220528003305 66 298 0.0 0.0 0.00 0.10 0.02 74 1011.3
20220528000804 67 298 0.0 0.0 0.00 0.11 0.02 75 1011.3
20220528000304 67 290 0.0 0.0 0.00 0.11 0.02 73 1011.4
20220527233805 68 279 0.0 0.0 0.00 0.12 0.02 70 1011.4
20220527233305 68 327 0.0 2.0 0.00 0.12 0.02 72 1011.4
20220527230806 68 242 0.0 2.0 0.00 0.13 0.02 71 1011.4
20220527230305 68 260 1.0 7.0 0.00 0.13 0.02 71 1011.4
20220527223805 69 284 0.0 0.0 0.00 0.13 0.02 71 1011.6
20220527223305 69 274 2.0 9.0 0.00 0.13 0.02 70 1011.6
20220527220804 69 318 3.0 10.0 0.00 0.13 0.02 71 1011.7
20220527220304 68 10 1.0 3.0 0.00 0.13 0.02 73 1011.7
20220527213805 68 332 0.0 2.0 0.00 0.13 0.02 72 1011.6
20220527213305 68 351 0.0 1.0 0.00 0.14 0.02 72 1011.6
20220527210805 68 124 0.0 6.0 0.00 0.15 0.02 73 1011.6
20220527210305 68 348 0.0 5.0 0.00 0.15 0.02 74 1011.7
20220527203804 67 173 0.0 0.0 0.00 0.15 0.02 76 1011.8
20220527203304 67 169 0.0 5.0 0.00 0.15 0.02 73 1011.9
20220527200804 66 144 0.0 3.0 0.00 0.16 0.02 74 1012.0
20220527200305 66 323 1.0 7.0 0.00 0.16 0.02 76 1012.1
20220527193805 66 349 0.0 0.0 0.00 0.17 0.02 76 1012.2
20220527193304 66 328 0.0 9.0 0.00 0.17 0.02 75 1012.3
20220527190805 65 351 0.0 1.0 0.00 0.17 0.02 79 1012.3
20220527190305 65 259 0.0 9.0 0.00 0.17 0.02 74 1012.4
20220527183805 64 245 0.0 3.0 0.00 0.17 0.02 79 1012.6
20220527183304 63 260 1.0 12.0 0.00 0.17 0.02 79 1012.5
20220527180804 61 304 1.0 7.0 0.00 0.17 0.02 84 1012.6
20220527180305 61 241 1.0 8.0 0.00 0.17 0.02 82 1012.6
20220527173804 59 22 0.0 2.0 0.00 0.17 0.02 88 1012.9
20220527173304 59 254 0.0 9.0 0.00 0.17 0.02 87 1012.9
20220527170805 58 175 0.0 0.0 0.00 0.17 0.02 88 1013.0
20220527170304 58 173 0.0 3.0 0.00 0.17 0.02 89 1012.9
20220527163804 58 329 0.0 0.0 0.00 0.17 0.02 91 1012.7
20220527163305 58 255 0.0 3.0 0.00 0.17 0.02 91 1012.6
20220527160805 58 232 0.0 2.0 0.00 0.17 0.02 92 1012.4
20220527160304 57 276 0.0 3.0 0.00 0.17 0.02 92 1012.4
20220527153805 57 26 0.0 1.0 0.00 0.17 0.02 93 1012.4
20220527153304 57 27 0.0 5.0 0.00 0.17 0.02 93 1012.3
20220527150806 56 228 0.0 0.0 0.00 0.17 0.02 94 1012.2
20220527150306 56 338 0.0 1.0 0.00 0.17 0.02 94 1012.2
20220527143806 56 195 0.0 1.0 0.00 0.17 0.02 95 1011.9
20220527143305 56 318 0.0 3.0 0.00 0.17 0.02 95 1011.9
20220527140805 55 91 0.0 1.0 0.00 0.17 0.02 95 1011.7
20220527140305 55 168 0.0 3.0 0.00 0.17 0.02 95 1011.7
20220527133805 55 334 0.0 1.0 0.00 0.17 0.02 95 1011.5
20220527133305 54 134 0.0 2.0 0.00 0.17 0.02 95 1011.5
20220527130805 54 283 0.0 0.0 0.00 0.17 0.02 95 1011.3
20220527130305 54 183 0.0 2.0 0.00 0.17 0.02 95 1011.3
20220527123805 54 10 0.0 2.0 0.00 0.17 0.02 95 1011.0
20220527123305 54 174 0.0 1.0 0.01 0.17 0.02 95 1010.9
20220527120805 54 283 0.0 2.0 0.01 0.17 0.02 95 1010.8
20220527120305 54 319 0.0 3.0 0.01 0.17 0.02 95 1010.6
20220527113804 54 355 0.0 0.0 0.01 0.17 0.02 95 1010.3
20220527113305 54 272 0.0 3.0 0.00 0.16 0.01 95 1010.2
20220527110804 54 186 0.0 1.0 0.00 0.16 0.01 95 1009.8
20220527110304 54 304 0.0 2.0 0.00 0.16 0.01 95 1009.8
20220527103805 54 311 0.0 1.0 0.00 0.16 0.01 95 1009.4
20220527103304 54 319 0.0 2.0 0.00 0.16 0.01 95 1009.4
20220527100805 55 284 0.0 0.0 0.00 0.16 0.01 95 1009.1
20220527100304 55 155 0.0 3.0 0.00 0.16 0.01 95 1009.0
20220527093805 55 184 0.0 1.0 0.00 0.16 0.01 95 1008.9
20220527093304 55 185 0.0 2.0 0.00 0.16 0.01 95 1008.8
20220527090804 55 314 0.0 5.0 0.00 0.16 0.01 95 1008.4
20220527090304 55 228 0.0 2.0 0.00 0.16 0.01 95 1008.4
20220527083805 55 246 0.0 3.0 0.00 0.16 0.01 95 1008.3
20220527083305 55 302 0.0 9.0 0.00 0.16 0.01 95 1008.2
20220527080805 55 284 0.0 1.0 0.00 0.16 0.01 95 1008.0
20220527080306 55 204 0.0 6.0 0.00 0.16 0.01 95 1008.0
20220527073805 56 350 0.0 5.0 0.00 0.16 0.01 95 1007.7
20220527073304 56 168 0.0 10.0 0.00 0.16 0.01 95 1007.7
20220527070805 56 299 0.0 8.0 0.00 0.16 0.01 95 1007.7
20220527070305 56 287 0.0 6.0 0.00 0.16 0.01 95 1007.6
20220527063806 56 21 0.0 2.0 0.00 0.16 0.01 95 1007.8
20220527063305 57 222 0.0 8.0 0.00 0.16 0.01 95 1007.8
20220527060804 57 241 0.0 1.0 0.01 0.16 0.01 95 1007.9
20220527060304 57 318 0.0 3.0 0.01 0.16 0.01 95 1007.8
20220527053804 58 280 0.0 2.0 0.01 0.16 0.01 95 1007.5
20220527053304 58 309 0.0 3.0 0.01 0.16 0.01 95 1007.5